Location: Marcé
(47.5801°N, 0.3280°W)
Time: 00:03:06
(UTC+01:00)

S-56A Canister/Altair - Pass Details

Date: 30 November 2021
Orbit: 633 x 2499 km, 38.9° (Epoch: 17 January)

Event Time Altitude Azimuth Distance (km) Brightness Sun altitude
Rises 04:23:19 0° 254° (WSW) 3,950 - -40.3°
Reaches altitude 10° 04:26:40 10° 245° (WSW) 2,712 - -39.7°
Maximum altitude 04:32:06 33° 183° (S) 1,278 - -38.8°
Exits shadow 04:36:03 12° 121° (ESE) 2,007 10.1 -38.2°
Drops below altitude 10° 04:36:21 10° 119° (ESE) 2,107 10.3 -38.1°
Sets 04:38:39 0° 109° (ESE) 2,949 11.3 -37.8°
